Location: *
(51.8167°N, 12.5000°E)
Time: 03:11:23
(UTC+00:00)

NOSS 3-4 (C) - Pass Details

Date: 16 September 2019
Orbit: 913 x 1299 km, 63.4° (Epoch: 21 September)

Event Time Altitude Azimuth Distance (km) Brightness Sun altitude
Rises 19:27:53 0° 314° (NW) 3,819 8.1 -19.0°
Reaches altitude 10° 19:30:29 10° 310° (NW) 2,915 7.2 -19.4°
Maximum altitude 19:37:11 53° 236° (SW) 1,382 4.4 -20.3°
Enters shadow 19:42:08 21° 168° (SSE) 2,387 5.1 -20.9°
